�������C�����ː����j�^�v���󋵏��
Date,Time,Cs137(Bq/L),Cs134(Bq/L),�S��(Bq/L)
2020/03/16,00:00,0.16,ND,26
2020/03/16,00:10,0.16,ND,27
2020/03/16,00:20,0.16,ND,31
2020/03/16,00:30,0.16,ND,28
2020/03/16,00:40,0.17,ND,30
2020/03/16,00:50,0.16,ND,29
2020/03/16,01:00,0.15,ND,30
2020/03/16,01:10,0.15,ND,29
2020/03/16,01:20,0.15,ND,24
2020/03/16,01:30,0.15,ND,24
2020/03/16,01:40,0.15,ND,19
2020/03/16,01:50,0.15,ND,19
2020/03/16,02:00,0.14,ND,22
2020/03/16,02:10,0.17,ND,23
2020/03/16,02:20,0.16,ND,24
2020/03/16,02:30,0.18,ND,27
2020/03/16,02:40,0.15,ND,31
2020/03/16,02:50,0.15,ND,32
2020/03/16,03:00,0.17,ND,32
2020/03/16,03:10,0.15,ND,28
2020/03/16,03:20,0.15,ND,29
2020/03/16,03:30,0.15,ND,28
2020/03/16,03:40,0.15,ND,29
2020/03/16,03:50,0.17,ND,30
2020/03/16,04:00,0.15,ND,28
2020/03/16,04:10,0.14,ND,31
2020/03/16,04:20,0.15,ND,31
2020/03/16,04:30,0.15,ND,32
2020/03/16,04:40,0.17,ND,32
2020/03/16,04:50,0.15,ND,32
2020/03/16,05:00,0.14,ND,32
2020/03/16,05:10,0.15,ND,31
2020/03/16,05:20,0.15,ND,32
2020/03/16,05:30,0.14,ND,32
2020/03/16,05:40,0.16,ND,30
2020/03/16,05:50,0.16,ND,29
2020/03/16,06:00,0.16,ND,29
2020/03/16,06:10,0.15,ND,29
2020/03/16,06:20,0.15,ND,29
2020/03/16,06:30,0.14,ND,29
2020/03/16,06:40,0.12,ND,30
2020/03/16,06:50,0.12,ND,30
2020/03/16,07:00,0.14,ND,28
2020/03/16,07:10,0.15,ND,28
2020/03/16,07:20,0.15,ND,31
2020/03/16,07:30,0.17,ND,27
2020/03/16,07:40,0.18,ND,29
2020/03/16,07:50,0.19,ND,29
2020/03/16,08:00,0.18,ND,29
2020/03/16,08:10,0.18,ND,27
2020/03/16,08:20,0.18,ND,23
2020/03/16,08:30,0.18,ND,26
2020/03/16,08:40,0.17,ND,24
2020/03/16,08:50,0.16,ND,23
2020/03/16,09:00,0.16,ND,24
2020/03/16,09:10,0.17,ND,23
2020/03/16,09:20,0.17,ND,26
2020/03/16,09:30,0.20,ND,26
2020/03/16,09:40,0.19,ND,26
2020/03/16,09:50,0.18,ND,28
2020/03/16,10:00,0.18,ND,26
2020/03/16,10:10,0.18,ND,30
2020/03/16,10:20,0.16,ND,28
2020/03/16,10:30,0.12,ND,28
2020/03/16,10:40,0.14,ND,28
2020/03/16,10:50,0.15,ND,26
2020/03/16,11:00,0.15,ND,27
2020/03/16,11:10,0.14,ND,26
2020/03/16,11:20,0.15,ND,27
2020/03/16,11:30,0.17,ND,27
2020/03/16,11:40,0.16,ND,30
2020/03/16,11:50,0.17,ND,28
2020/03/16,12:00,0.18,ND,28
2020/03/16,12:10,0.18,ND,32
2020/03/16,12:20,0.18,ND,30
2020/03/16,12:30,0.18,ND,29
2020/03/16,12:40,0.18,ND,28
2020/03/16,12:50,0.17,ND,30
2020/03/16,13:00,0.16,ND,30
2020/03/16,13:10,0.16,ND,27
2020/03/16,13:20,0.16,ND,28
2020/03/16,13:30,0.15,ND,28
2020/03/16,13:40,0.15,ND,26
2020/03/16,13:50,0.14,ND,28
2020/03/16,14:00,0.14,ND,30
2020/03/16,14:10,0.14,ND,28
2020/03/16,14:20,0.15,ND,26
2020/03/16,14:30,0.15,ND,27
2020/03/16,14:40,0.15,ND,28
2020/03/16,14:50,0.15,ND,26
2020/03/16,15:00,0.14,ND,26
2020/03/16,15:10,0.16,ND,26
2020/03/16,15:20,0.15,ND,33
2020/03/16,15:30,0.13,ND,32
2020/03/16,15:40,0.14,ND,32
2020/03/16,15:50,0.14,ND,30
2020/03/16,16:00,0.17,ND,28
2020/03/16,16:10,0.17,ND,27
2020/03/16,16:20,0.18,ND,23
2020/03/16,16:30,0.19,ND,23
2020/03/16,16:40,0.21,ND,21
2020/03/16,16:50,0.21,ND,21
2020/03/16,17:00,0.20,ND,22
2020/03/16,17:10,0.20,ND,26
2020/03/16,17:20,0.21,ND,28
2020/03/16,17:30,0.23,ND,29
2020/03/16,17:40,0.22,ND,31
2020/03/16,17:50,0.21,ND,32
2020/03/16,18:00,0.21,ND,31
2020/03/16,18:10,0.19,ND,30
2020/03/16,18:20,0.16,ND,29
2020/03/16,18:30,0.14,ND,29
2020/03/16,18:40,0.14,ND,29
2020/03/16,18:50,0.14,ND,31
2020/03/16,19:00,0.12,ND,32
2020/03/16,19:10,0.14,ND,32
2020/03/16,19:20,0.14,ND,30
2020/03/16,19:30,0.15,ND,27
2020/03/16,19:40,0.15,ND,28
2020/03/16,19:50,0.15,ND,23
2020/03/16,20:00,0.17,ND,25
2020/03/16,20:10,0.16,ND,25
2020/03/16,20:20,0.16,ND,25
2020/03/16,20:30,0.18,ND,27
2020/03/16,20:40,0.18,ND,29
2020/03/16,20:50,0.18,ND,32
2020/03/16,21:00,0.19,ND,33
2020/03/16,21:10,0.18,ND,32
2020/03/16,21:20,0.18,ND,32
2020/03/16,21:30,0.16,ND,34
2020/03/16,21:40,0.17,ND,30
2020/03/16,21:50,0.18,ND,27
2020/03/16,22:00,0.16,ND,27
2020/03/16,22:10,0.19,ND,27
2020/03/16,22:20,0.20,ND,27
2020/03/16,22:30,0.19,ND,23
2020/03/16,22:40,0.20,ND,22
2020/03/16,22:50,0.17,ND,25
2020/03/16,23:00,0.18,ND,23
2020/03/16,23:10,0.18,ND,25
2020/03/16,23:20,0.18,ND,23
2020/03/16,23:30,0.20,ND,28
2020/03/16,23:40,0.18,ND,31
2020/03/16,23:50,0.18,ND,29
